ITY426 LIML-EDDH

Flight info

Callsign ITY426
Flight time 1h 30m
Altitude 38000
Route NESTI M985 TAGIP DCT BRENO DCT KONIN DCT EXITI DCT LASGA M726 LASTO DCT ABGUS DCT DIRBO T902 RARUP
Aircraft A320/M-SDE3FGHIRWY/LB1

Departure

Time 2026-04-24 20:12
Airport Milano Linate Airport (LIML)

Arrival

Time 2026-04-24 21:42
Airport Hamburg Helmut Schmidt Airport (EDDH)
Time Latitude Longitude Altitude Speed Heading
2026-04-24 19:38 45.45974 9.27967 360 ft 0 kts
2026-04-24 20:01 45.45957 9.27967 360 ft 4 kts
2026-04-24 20:01 45.45934 9.27967 360 ft 3 kts
2026-04-24 20:02 45.45919 9.27964 360 ft 4 kts 38°
2026-04-24 20:02 45.45907 9.27924 361 ft 3 kts 90°
2026-04-24 20:02 45.45907 9.27905 360 ft 0 kts 90°
2026-04-24 20:05 45.45907 9.27923 361 ft 5 kts 90°
2026-04-24 20:05 45.45894 9.27975 360 ft 5 kts 141°
2026-04-24 20:06 45.45843 9.27983 360 ft 11 kts 180°
2026-04-24 20:06 45.45734 9.27981 360 ft 19 kts 180°
2026-04-24 20:06 45.45584 9.27979 360 ft 24 kts 180°
2026-04-24 20:06 45.45416 9.27976 360 ft 25 kts 180°
2026-04-24 20:07 45.45314 9.27926 363 ft 22 kts 206°
2026-04-24 20:07 45.45110 9.27877 363 ft 23 kts 174°
2026-04-24 20:07 45.44957 9.27897 363 ft 21 kts 168°
2026-04-24 20:07 45.44807 9.27942 364 ft 23 kts 175°
2026-04-24 20:08 45.44645 9.27960 360 ft 24 kts 176°
2026-04-24 20:08 45.44473 9.27979 360 ft 25 kts 175°
2026-04-24 20:08 45.44291 9.27995 360 ft 27 kts 175°
2026-04-24 20:08 45.44096 9.28017 364 ft 28 kts 177°
2026-04-24 20:09 45.43968 9.28032 360 ft 22 kts 175°
2026-04-24 20:09 45.43757 9.28054 360 ft 24 kts 176°
2026-04-24 20:09 45.43592 9.28073 361 ft 22 kts 176°
2026-04-24 20:09 45.43467 9.28061 362 ft 17 kts 216°
2026-04-24 20:10 45.43445 9.27978 361 ft 0 kts 265°
2026-04-24 20:10 45.43443 9.27945 360 ft 11 kts 265°
2026-04-24 20:10 45.43454 9.27831 364 ft 15 kts 311°
2026-04-24 20:11 45.43531 9.27813 365 ft 3 kts 356°
2026-04-24 20:11 45.43532 9.27813 365 ft 0 kts 356°
2026-04-24 20:11 45.43663 9.27798 364 ft 57 kts 355°
2026-04-24 20:11 45.44338 9.27722 362 ft 128 kts 355°
2026-04-24 20:12 45.45418 9.27602 420 ft 173 kts 354°
2026-04-24 20:12 45.46659 9.27453 1051 ft 176 kts 359°
2026-04-24 20:12 45.47881 9.27551 1765 ft 179 kts
2026-04-24 20:12 45.49204 9.27802 2068 ft 203 kts
2026-04-24 20:13 45.50730 9.28114 2325 ft 231 kts
2026-04-24 20:13 45.52356 9.28428 2735 ft 253 kts
2026-04-24 20:13 45.54001 9.29428 3487 ft 263 kts 31°
2026-04-24 20:13 45.55590 9.30743 4404 ft 265 kts 28°
2026-04-24 20:14 45.57247 9.32001 5346 ft 267 kts 26°
2026-04-24 20:14 45.58904 9.33224 6299 ft 269 kts 26°
2026-04-24 20:14 45.60579 9.34461 7156 ft 272 kts 26°
2026-04-24 20:14 45.62271 9.35715 7992 ft 276 kts 27°
2026-04-24 20:15 45.63983 9.36994 8856 ft 279 kts 27°
2026-04-24 20:15 45.65709 9.38299 9785 ft 282 kts 29°
2026-04-24 20:15 45.67298 9.39982 10533 ft 288 kts 43°
2026-04-24 20:15 45.68639 9.42261 10831 ft 312 kts 53°
2026-04-24 20:16 45.69969 9.44858 11118 ft 332 kts 53°
2026-04-24 20:16 45.71364 9.47603 11664 ft 340 kts 53°
2026-04-24 20:16 45.72763 9.50354 12387 ft 344 kts 53°
2026-04-24 20:16 45.74178 9.53131 13122 ft 348 kts 53°
2026-04-24 20:17 45.75408 9.56142 13837 ft 353 kts 65°
2026-04-24 20:17 45.76472 9.63068 15119 ft 362 kts 85°
2026-04-24 20:17 45.76661 9.66680 15784 ft 364 kts 85°
2026-04-24 20:18 45.76788 9.69098 16227 ft 366 kts 85°
2026-04-24 20:18 45.77045 9.73984 17090 ft 370 kts 85°
2026-04-24 20:18 45.77237 9.77684 17729 ft 373 kts 85°
2026-04-24 20:18 45.77430 9.81402 18388 ft 376 kts 85°
2026-04-24 20:19 45.77625 9.85150 18949 ft 378 kts 85°
2026-04-24 20:19 45.77821 9.88918 19509 ft 381 kts 85°
2026-04-24 20:19 45.78014 9.92669 20061 ft 383 kts 85°
2026-04-24 20:19 45.78208 9.96497 20642 ft 386 kts 85°
2026-04-24 20:20 45.78402 10.00348 21221 ft 389 kts 85°
2026-04-24 20:20 45.78596 10.04220 21780 ft 391 kts 85°
2026-04-24 20:20 45.78792 10.08174 22349 ft 394 kts 85°
2026-04-24 20:20 45.78985 10.12049 22888 ft 396 kts 85°
2026-04-24 20:21 45.79181 10.16009 23413 ft 399 kts 85°
2026-04-24 20:21 45.79373 10.19985 23891 ft 401 kts 85°
2026-04-24 20:21 45.79557 10.23989 24316 ft 404 kts 85°
2026-04-24 20:21 45.79737 10.28013 24732 ft 406 kts 85°
2026-04-24 20:22 45.79917 10.32065 25137 ft 408 kts 85°
2026-04-24 20:22 45.80095 10.36140 25524 ft 411 kts 85°
2026-04-24 20:22 45.80524 10.40186 25888 ft 412 kts 75°
2026-04-24 20:22 45.81454 10.44077 26264 ft 414 kts 65°
2026-04-24 20:23 45.82859 10.47689 26632 ft 416 kts 55°
2026-04-24 20:23 45.84551 10.51092 27020 ft 419 kts 54°
2026-04-24 20:23 45.86246 10.54499 27375 ft 421 kts 54°
2026-04-24 20:23 45.87946 10.57944 27731 ft 424 kts 55°
2026-04-24 20:24 45.89074 10.60241 27958 ft 425 kts 55°
2026-04-24 20:24 45.91408 10.64860 28413 ft 429 kts 50°
2026-04-24 20:24 45.93500 10.67925 28729 ft 432 kts 41°
2026-04-24 20:24 45.95940 10.70462 29046 ft 435 kts 31°
2026-04-24 20:25 45.98651 10.72408 29363 ft 438 kts 25°
2026-04-24 20:25 46.01451 10.74196 29652 ft 440 kts 25°
2026-04-24 20:25 46.04254 10.75995 29958 ft 442 kts 25°
2026-04-24 20:25 46.07097 10.77827 30278 ft 443 kts 25°
2026-04-24 20:26 46.09884 10.79630 30525 ft 445 kts 25°
2026-04-24 20:26 46.12717 10.81467 30768 ft 447 kts 25°
2026-04-24 20:26 46.15555 10.83309 30987 ft 448 kts 25°
2026-04-24 20:26 46.18403 10.85162 31218 ft 450 kts 25°
2026-04-24 20:27 46.21259 10.87021 31451 ft 450 kts 25°
2026-04-24 20:27 46.24110 10.88875 31756 ft 449 kts 25°
2026-04-24 20:27 46.26967 10.90733 32068 ft 449 kts 25°
2026-04-24 20:27 46.29809 10.92585 32386 ft 448 kts 25°
2026-04-24 20:28 46.31726 10.93834 32597 ft 447 kts 25°
2026-04-24 20:28 46.35485 10.96291 33005 ft 446 kts 25°
2026-04-24 20:28 46.38313 10.98142 33303 ft 446 kts 25°
2026-04-24 20:28 46.40182 10.99365 33505 ft 445 kts 25°
2026-04-24 20:29 46.43004 11.01211 33800 ft 444 kts 25°
2026-04-24 20:29 46.45813 11.03049 34085 ft 444 kts 25°
2026-04-24 20:29 46.48655 11.04913 34342 ft 444 kts 25°
2026-04-24 20:29 46.51462 11.06755 34598 ft 444 kts 25°
2026-04-24 20:30 46.54284 11.08612 34847 ft 443 kts 25°
2026-04-24 20:30 46.57054 11.10439 35102 ft 442 kts 25°
2026-04-24 20:30 46.59891 11.12312 35345 ft 442 kts 24°
2026-04-24 20:30 46.62651 11.14135 35589 ft 441 kts 24°
2026-04-24 20:31 46.65449 11.15981 35829 ft 440 kts 24°
2026-04-24 20:31 46.68239 11.17824 36084 ft 439 kts 24°
2026-04-24 20:31 46.71015 11.19663 36307 ft 438 kts 24°
2026-04-24 20:31 46.73789 11.21508 36515 ft 438 kts 24°
2026-04-24 20:32 46.76556 11.23354 36722 ft 437 kts 24°
2026-04-24 20:32 46.79322 11.25201 36903 ft 437 kts 23°
2026-04-24 20:32 46.82092 11.27049 37124 ft 437 kts 24°
2026-04-24 20:32 46.84857 11.28889 37296 ft 437 kts 23°
2026-04-24 20:33 46.87622 11.30727 37471 ft 437 kts 23°
2026-04-24 20:33 46.90392 11.32570 37635 ft 437 kts 23°
2026-04-24 20:33 46.93161 11.34420 37796 ft 437 kts 23°
2026-04-24 20:33 46.95941 11.36129 37961 ft 436 kts 17°
2026-04-24 20:34 46.98879 11.37226 38108 ft 434 kts
2026-04-24 20:34 47.01880 11.37633 38132 ft 433 kts 359°
2026-04-24 20:34 47.07896 11.37577 38125 ft 432 kts 358°
2026-04-24 20:35 47.13908 11.37511 38162 ft 432 kts 358°
2026-04-24 20:35 47.19917 11.37447 38167 ft 432 kts 358°
2026-04-24 20:36 47.25925 11.37381 38173 ft 432 kts 358°
2026-04-24 20:36 47.31949 11.37336 38177 ft 432 kts 358°
2026-04-24 20:37 47.37967 11.37286 38172 ft 432 kts 358°
2026-04-24 20:37 47.43984 11.37225 38166 ft 432 kts 358°
2026-04-24 20:38 47.50036 11.37157 38162 ft 432 kts 358°
2026-04-24 20:38 47.56044 11.37089 38156 ft 432 kts 358°
2026-04-24 20:39 47.62061 11.37028 38139 ft 432 kts 358°
2026-04-24 20:39 47.68045 11.36981 38141 ft 432 kts 358°
2026-04-24 20:40 47.74065 11.36927 38139 ft 432 kts 357°
2026-04-24 20:40 47.80087 11.36863 38136 ft 433 kts 357°
2026-04-24 20:41 47.86113 11.36801 38154 ft 433 kts 358°
2026-04-24 20:41 47.92140 11.36875 38169 ft 433 kts 358°
2026-04-24 20:42 47.98172 11.37057 38170 ft 433 kts 359°
2026-04-24 20:42 48.04214 11.37232 38173 ft 434 kts 358°
2026-04-24 20:43 48.10258 11.37369 38182 ft 434 kts 358°
2026-04-24 20:43 48.16302 11.37498 38180 ft 434 kts 358°
2026-04-24 20:44 48.22378 11.37634 38175 ft 433 kts 358°
2026-04-24 20:44 48.28417 11.37770 38169 ft 433 kts 358°
2026-04-24 20:45 48.34459 11.37906 38164 ft 433 kts 358°
2026-04-24 20:45 48.40491 11.38042 38160 ft 433 kts 358°
2026-04-24 20:46 48.46526 11.38174 38157 ft 433 kts 358°
2026-04-24 20:46 48.52556 11.38316 38166 ft 433 kts 358°
2026-04-24 20:47 48.58596 11.38453 38160 ft 433 kts 358°
2026-04-24 20:47 48.64628 11.38578 38156 ft 433 kts 358°
2026-04-24 20:48 48.70657 11.38715 38154 ft 433 kts 358°
2026-04-24 20:48 48.76691 11.38859 38152 ft 434 kts 357°
2026-04-24 20:49 48.82766 11.39004 38150 ft 434 kts 357°
2026-04-24 20:49 48.88781 11.39143 38147 ft 434 kts 357°
2026-04-24 20:50 48.94827 11.39284 38146 ft 435 kts 357°
2026-04-24 20:50 49.00890 11.39423 38155 ft 435 kts 356°
2026-04-24 20:51 49.06911 11.39560 38151 ft 435 kts 357°
2026-04-24 20:51 49.12965 11.39709 38149 ft 435 kts 357°
2026-04-24 20:52 49.19019 11.39851 38162 ft 435 kts 356°
2026-04-24 20:52 49.25070 11.39987 38157 ft 434 kts 356°
2026-04-24 20:53 49.31111 11.40123 38157 ft 434 kts 356°
2026-04-24 20:53 49.37149 11.40271 38155 ft 434 kts 356°
2026-04-24 20:54 49.43189 11.40416 38163 ft 433 kts 356°
2026-04-24 20:54 49.49222 11.40556 38155 ft 433 kts 356°
2026-04-24 20:55 49.55249 11.40692 38143 ft 432 kts 354°
2026-04-24 20:55 49.61163 11.39649 38137 ft 427 kts 347°
2026-04-24 20:56 49.67086 11.38327 38160 ft 427 kts 347°
2026-04-24 20:56 49.72927 11.37025 38151 ft 426 kts 347°
2026-04-24 20:57 49.78840 11.35712 38142 ft 426 kts 347°
2026-04-24 20:57 49.84678 11.34419 38137 ft 427 kts 347°
2026-04-24 20:58 49.90555 11.33100 38156 ft 427 kts 346°
2026-04-24 20:58 49.96440 11.31779 38162 ft 427 kts 346°
2026-04-24 20:59 50.01372 11.30674 38162 ft 426 kts 346°
2026-04-24 20:59 50.07244 11.29351 38160 ft 426 kts 346°
2026-04-24 21:00 50.13084 11.28030 38180 ft 426 kts 346°
2026-04-24 21:00 50.18951 11.26705 38175 ft 425 kts 346°
2026-04-24 21:01 50.24808 11.25371 38179 ft 425 kts 346°
2026-04-24 21:01 50.30659 11.24040 38170 ft 424 kts 346°
2026-04-24 21:02 50.36495 11.22716 38179 ft 425 kts 346°
2026-04-24 21:02 50.42399 11.21685 38176 ft 426 kts 349°
2026-04-24 21:03 50.48317 11.20897 38174 ft 426 kts 349°
2026-04-24 21:03 50.54221 11.20081 38175 ft 426 kts 349°
2026-04-24 21:04 50.60090 11.19203 38166 ft 426 kts 348°
2026-04-24 21:04 50.66009 11.18286 38162 ft 427 kts 348°
2026-04-24 21:05 50.71933 11.17369 38160 ft 427 kts 349°
2026-04-24 21:05 50.77857 11.16467 38159 ft 428 kts 348°
2026-04-24 21:06 50.83784 11.15560 38171 ft 428 kts 348°
2026-04-24 21:06 50.89709 11.14651 38164 ft 428 kts 348°
2026-04-24 21:07 50.95645 11.13746 38161 ft 428 kts 348°
2026-04-24 21:07 51.01583 11.12836 38158 ft 428 kts 348°
2026-04-24 21:08 51.07511 11.11912 38176 ft 428 kts 348°
2026-04-24 21:08 51.13448 11.10992 38168 ft 428 kts 349°
2026-04-24 21:09 51.19420 11.10392 38165 ft 430 kts 352°
2026-04-24 21:09 51.25406 11.10047 38169 ft 431 kts 352°
2026-04-24 21:10 51.31404 11.09673 38187 ft 430 kts 352°
2026-04-24 21:10 51.37348 11.09227 38177 ft 429 kts 352°
2026-04-24 21:11 51.43356 11.08744 38167 ft 429 kts 352°
2026-04-24 21:11 51.49295 11.08278 38160 ft 430 kts 352°
2026-04-24 21:12 51.55284 11.07805 38176 ft 430 kts 352°
2026-04-24 21:12 51.61266 11.07324 38167 ft 430 kts 352°
2026-04-24 21:13 51.67277 11.06866 38166 ft 431 kts 352°
2026-04-24 21:13 51.73295 11.06405 38167 ft 431 kts 352°
2026-04-24 21:14 51.79292 11.05932 38178 ft 431 kts 352°
2026-04-24 21:14 51.85319 11.05452 38170 ft 431 kts 352°
2026-04-24 21:15 51.91312 11.04632 38158 ft 428 kts 348°
2026-04-24 21:15 51.97178 11.03274 38154 ft 427 kts 346°
2026-04-24 21:16 52.03095 11.01849 37986 ft 427 kts 347°
2026-04-24 21:16 52.09021 11.00549 37936 ft 425 kts 347°
2026-04-24 21:17 52.14821 10.99337 37940 ft 425 kts 347°
2026-04-24 21:17 52.19705 10.98302 37931 ft 425 kts 347°
2026-04-24 21:18 52.26578 10.96816 37971 ft 425 kts 347°
2026-04-24 21:18 52.29480 10.96184 37665 ft 427 kts 347°
2026-04-24 21:18 52.32460 10.95536 37111 ft 425 kts 347°
2026-04-24 21:19 52.35359 10.94905 36583 ft 426 kts 346°
2026-04-24 21:19 52.38346 10.94256 36059 ft 428 kts 346°
2026-04-24 21:19 52.41302 10.93617 35552 ft 429 kts 346°
2026-04-24 21:19 52.44267 10.92974 35064 ft 430 kts 346°
2026-04-24 21:20 52.50218 10.91677 34085 ft 432 kts 346°
2026-04-24 21:20 52.53199 10.91026 33567 ft 431 kts 346°
2026-04-24 21:20 52.56123 10.90392 33030 ft 427 kts 346°
2026-04-24 21:21 52.59060 10.89756 32498 ft 424 kts 346°
2026-04-24 21:21 52.61977 10.89122 31984 ft 420 kts 346°
2026-04-24 21:21 52.64869 10.88491 31476 ft 417 kts 346°
2026-04-24 21:21 52.67756 10.87854 30971 ft 413 kts 345°
2026-04-24 21:22 52.70594 10.87224 30479 ft 410 kts 345°
2026-04-24 21:22 52.73413 10.86601 29957 ft 407 kts 346°
2026-04-24 21:22 52.76207 10.85987 29404 ft 403 kts 346°
2026-04-24 21:22 52.78038 10.85584 29031 ft 401 kts 346°
2026-04-24 21:23 52.81702 10.84771 28303 ft 396 kts 346°
2026-04-24 21:23 52.84438 10.84163 27765 ft 393 kts 346°
2026-04-24 21:23 52.87177 10.83583 27228 ft 391 kts 347°
2026-04-24 21:23 52.89876 10.83038 26713 ft 388 kts 347°
2026-04-24 21:24 52.91658 10.82684 26377 ft 386 kts 347°
2026-04-24 21:24 52.95190 10.81985 25718 ft 383 kts 348°
2026-04-24 21:24 52.97831 10.81461 25219 ft 381 kts 348°
2026-04-24 21:24 52.99601 10.81107 24895 ft 379 kts 348°
2026-04-24 21:25 53.02214 10.80576 24480 ft 375 kts 348°
2026-04-24 21:25 53.04804 10.80041 23926 ft 376 kts 348°
2026-04-24 21:25 53.07444 10.79492 23291 ft 376 kts 348°
2026-04-24 21:25 53.10013 10.78960 22756 ft 372 kts 348°
2026-04-24 21:26 53.12626 10.78414 21852 ft 381 kts 349°
2026-04-24 21:26 53.15268 10.77864 21252 ft 380 kts 349°
2026-04-24 21:26 53.17885 10.77329 20710 ft 378 kts 349°
2026-04-24 21:26 53.20502 10.76798 20089 ft 379 kts 349°
2026-04-24 21:27 53.23123 10.76263 19326 ft 380 kts 349°
2026-04-24 21:27 53.25726 10.75729 18528 ft 372 kts 350°
2026-04-24 21:27 53.28264 10.75208 17671 ft 363 kts 350°
2026-04-24 21:27 53.30690 10.74715 17351 ft 342 kts 350°
2026-04-24 21:28 53.33020 10.74242 16752 ft 332 kts 350°
2026-04-24 21:28 53.35320 10.73767 16125 ft 335 kts 349°
2026-04-24 21:28 53.37645 10.73276 15490 ft 338 kts 349°
2026-04-24 21:28 53.39987 10.72777 14879 ft 340 kts 349°
2026-04-24 21:29 53.42339 10.72276 14182 ft 331 kts 349°
2026-04-24 21:29 53.44632 10.71791 13405 ft 323 kts 349°
2026-04-24 21:29 53.46831 10.71324 12612 ft 316 kts 349°
2026-04-24 21:29 53.48987 10.70858 11851 ft 309 kts 349°
2026-04-24 21:30 53.51095 10.70397 11104 ft 302 kts 349°
2026-04-24 21:30 53.53155 10.69945 10513 ft 293 kts 349°
2026-04-24 21:30 53.55133 10.69517 10085 ft 278 kts 349°
2026-04-24 21:30 53.56965 10.69131 10061 ft 253 kts 349°
2026-04-24 21:31 53.58709 10.68774 9539 ft 248 kts 349°
2026-04-24 21:31 53.60384 10.68425 9023 ft 242 kts 349°
2026-04-24 21:31 53.62029 10.68080 8514 ft 238 kts 349°
2026-04-24 21:31 53.63684 10.67733 8005 ft 236 kts 349°
2026-04-24 21:32 53.65268 10.67095 7505 ft 234 kts 337°
2026-04-24 21:32 53.66787 10.66045 7028 ft 238 kts 335°
2026-04-24 21:32 53.68305 10.64923 6527 ft 235 kts 334°
2026-04-24 21:32 53.69755 10.63749 6015 ft 227 kts 328°
2026-04-24 21:33 53.71063 10.62316 5507 ft 221 kts 325°
2026-04-24 21:33 53.71895 10.61356 5167 ft 218 kts 324°
2026-04-24 21:33 53.73542 10.59441 4983 ft 212 kts 324°
2026-04-24 21:33 53.74758 10.58021 4983 ft 213 kts 324°
2026-04-24 21:34 53.75965 10.56612 4983 ft 213 kts 324°
2026-04-24 21:34 53.77201 10.55169 4964 ft 213 kts 324°
2026-04-24 21:34 53.78398 10.53771 4655 ft 211 kts 324°
2026-04-24 21:34 53.79604 10.52361 4295 ft 210 kts 323°
2026-04-24 21:35 53.80547 10.50544 4015 ft 207 kts 294°
2026-04-24 21:35 53.80704 10.48092 3980 ft 217 kts 269°
2026-04-24 21:35 53.80478 10.45545 3978 ft 220 kts 265°
2026-04-24 21:35 53.80198 10.42989 3983 ft 221 kts 264°
2026-04-24 21:36 53.79912 10.40426 3984 ft 221 kts 264°
2026-04-24 21:36 53.79625 10.37835 3972 ft 221 kts 264°
2026-04-24 21:36 53.79333 10.35233 3978 ft 219 kts 264°
2026-04-24 21:36 53.79053 10.32827 3975 ft 204 kts 264°
2026-04-24 21:37 53.78581 10.30573 3992 ft 201 kts 242°
2026-04-24 21:37 53.77741 10.28802 3997 ft 194 kts 237°
2026-04-24 21:37 53.76880 10.27040 4028 ft 194 kts 237°
2026-04-24 21:37 53.76029 10.25298 3880 ft 193 kts 238°
2026-04-24 21:38 53.75180 10.23560 3662 ft 191 kts 237°
2026-04-24 21:38 53.74303 10.21766 3414 ft 190 kts 237°
2026-04-24 21:38 53.73495 10.20113 3169 ft 190 kts 237°
2026-04-24 21:38 53.72643 10.18373 2912 ft 189 kts 238°
2026-04-24 21:39 53.71783 10.16608 2654 ft 203 kts 237°
2026-04-24 21:39 53.70873 10.14753 2374 ft 204 kts 237°
2026-04-24 21:39 53.70003 10.12991 2100 ft 187 kts 237°
2026-04-24 21:39 53.69203 10.11366 1855 ft 172 kts 237°
2026-04-24 21:40 53.68462 10.09859 1620 ft 164 kts 238°
2026-04-24 21:40 53.67731 10.08364 1398 ft 159 kts 237°
2026-04-24 21:40 53.67049 10.06979 1175 ft 148 kts 238°
2026-04-24 21:40 53.66388 10.05637 965 ft 142 kts 237°
2026-04-24 21:41 53.65763 10.04368 766 ft 138 kts 236°
2026-04-24 21:41 53.65137 10.03093 570 ft 137 kts 236°
2026-04-24 21:41 53.64548 10.01896 395 ft 137 kts 234°
2026-04-24 21:41 53.63944 10.00672 212 ft 135 kts 236°
2026-04-24 21:42 53.63510 9.99790 81 ft 134 kts 235°
2026-04-24 21:42 53.62837 9.98420 44 ft 87 kts 230°
2026-04-24 21:42 53.62579 9.97889 41 ft 30 kts 230°
2026-04-24 21:42 53.62450 9.97820 42 ft 16 kts 135°
2026-04-24 21:43 53.62433 9.97862 44 ft 4 kts 114°
2026-04-24 21:43 53.62436 9.97998 47 ft 0 kts 66°
2026-04-24 21:43 53.62467 9.98095 47 ft 21 kts 58°
2026-04-24 21:44 53.62559 9.98279 47 ft 18 kts 53°
2026-04-24 21:44 53.62634 9.98438 47 ft 17 kts 54°
2026-04-24 21:44 53.62680 9.98535 47 ft 16 kts 49°
2026-04-24 21:44 53.62748 9.98666 47 ft 14 kts 51°
2026-04-24 21:45 53.62811 9.98788 47 ft 13 kts 48°
2026-04-24 21:45 53.62872 9.98914 47 ft 18 kts 52°
2026-04-24 21:45 53.62966 9.99107 47 ft 22 kts 49°
2026-04-24 21:45 53.63054 9.99292 47 ft 19 kts 54°
2026-04-24 21:46 53.63089 9.99377 47 ft 10 kts 54°
2026-04-24 21:46 53.63152 9.99520 46 ft 18 kts 52°
2026-04-24 21:46 53.63220 9.99667 48 ft 10 kts 50°
2026-04-24 21:46 53.63225 9.99676 48 ft 0 kts 49°
2026-04-24 21:47 53.63230 9.99724 48 ft 8 kts 93°
2026-04-24 21:47 53.63186 9.99792 48 ft 9 kts 153°
2026-04-24 21:48 53.63114 9.99857 48 ft 17 kts 150°
2026-04-24 21:48 53.63011 9.99944 48 ft 13 kts 153°
2026-04-24 21:48 53.62996 9.99957 46 ft 0 kts 152°
2026-04-24 21:48 53.62994 9.99959 46 ft 2 kts 152°
2026-04-24 21:49 53.62950 10.00014 48 ft 7 kts 123°
2026-04-24 21:49 53.62934 10.00095 48 ft 7 kts 114°
2026-04-24 21:49 53.62911 10.00161 48 ft 6 kts 121°
2026-04-24 21:49 53.62893 10.00210 48 ft 1 kts 123°
2026-04-24 21:50 53.62889 10.00220 46 ft 0 kts 122°